Time,TemperatureF,DewpointF,PressureIn,WindDirection,WindDirectionDegrees,WindSpeedMPH,WindSpeedGustMPH,Humidity,HourlyPrecipIn,Conditions,Clouds,dailyrainin,SoftwareType,DateUTC
2013-05-11 00:11:00,62.9,61.0,29.92,WSW,258,0.0,-999.0,93,-99.99,,,0.20,weatherlink.com 1.10,2013-05-11 04:11:00,
2013-05-11 00:26:00,62.9,61.0,29.92,WSW,258,0.0,-999.0,93,-99.99,,,0.20,weatherlink.com 1.10,2013-05-11 04:26:00,
2013-05-11 00:41:00,62.8,61.0,29.91,WSW,258,0.0,-999.0,94,-99.99,,,0.20,weatherlink.com 1.10,2013-05-11 04:41:00,
2013-05-11 00:56:00,62.7,61.0,29.92,WSW,258,0.0,-999.0,94,-99.99,,,0.20,weatherlink.com 1.10,2013-05-11 04:56:00,
2013-05-11 01:11:00,62.7,61.0,29.92,WSW,258,0.0,-999.0,94,-99.99,,,0.20,weatherlink.com 1.10,2013-05-11 05:11:00,
2013-05-11 01:26:00,62.6,61.0,29.92,WSW,258,0.0,-999.0,94,-99.99,,,0.00,weatherlink.com 1.10,2013-05-11 05:26:00,
2013-05-11 01:41:00,62.7,61.0,29.91,WSW,258,0.0,-999.0,94,-99.99,,,0.00,weatherlink.com 1.10,2013-05-11 05:41:00,
2013-05-11 01:56:00,62.7,61.0,29.91,WSW,258,0.0,-999.0,94,-99.99,,,0.00,weatherlink.com 1.10,2013-05-11 05:56:00,
2013-05-11 02:11:00,62.7,61.0,29.91,WSW,258,0.0,-999.0,94,-99.99,,,0.00,weatherlink.com 1.10,2013-05-11 06:11:00,
2013-05-11 02:26:00,63.4,62.0,29.90,West,275,5.0,-999.0,94,-99.99,,,0.00,weatherlink.com 1.10,2013-05-11 06:26:00,
2013-05-11 02:41:00,63.6,62.0,29.89,West,272,3.0,-999.0,93,-99.99,,,0.00,weatherlink.com 1.10,2013-05-11 06:41:00,
2013-05-11 02:56:00,63.6,61.0,29.89,West,279,3.0,-999.0,92,-99.99,,,0.00,weatherlink.com 1.10,2013-05-11 06:56:00,
2013-05-11 03:11:00,63.6,61.0,29.89,West,279,0.0,-999.0,92,-99.99,,,0.00,weatherlink.com 1.10,2013-05-11 07:11:00,
2013-05-11 03:26:00,63.5,62.0,29.90,WSW,257,4.0,-999.0,93,-99.99,,,0.06,weatherlink.com 1.10,2013-05-11 07:26:00,
2013-05-11 03:41:00,63.3,61.0,29.89,SW,225,4.0,-999.0,93,-99.99,,,0.09,weatherlink.com 1.10,2013-05-11 07:41:00,
2013-05-11 03:56:00,62.9,61.0,29.90,WSW,257,0.0,-999.0,93,-99.99,,,0.11,weatherlink.com 1.10,2013-05-11 07:56:00,
2013-05-11 04:11:00,62.6,61.0,29.89,WSW,252,0.0,-999.0,93,-99.99,,,0.11,weatherlink.com 1.10,2013-05-11 08:11:00,
2013-05-11 04:26:00,62.3,60.0,29.88,WSW,252,0.0,-999.0,93,-99.99,,,0.13,weatherlink.com 1.10,2013-05-11 08:26:00,
2013-05-11 04:41:00,62.0,60.0,29.89,WSW,252,2.0,-999.0,93,-99.99,,,0.13,weatherlink.com 1.10,2013-05-11 08:41:00,
2013-05-11 04:56:00,61.6,59.0,29.89,West,269,4.0,-999.0,92,-99.99,,,0.13,weatherlink.com 1.10,2013-05-11 08:56:00,
2013-05-11 05:11:00,61.3,59.0,29.89,WNW,285,3.0,-999.0,92,-99.99,,,0.13,weatherlink.com 1.10,2013-05-11 09:11:00,
2013-05-11 05:26:00,61.0,59.0,29.90,WNW,288,4.0,-999.0,92,-99.99,,,0.13,weatherlink.com 1.10,2013-05-11 09:26:00,
2013-05-11 05:41:00,60.8,59.0,29.90,WNW,288,0.0,-999.0,92,-99.99,,,0.13,weatherlink.com 1.10,2013-05-11 09:41:00,
2013-05-11 05:56:00,60.6,58.0,29.89,WNW,288,2.0,-999.0,92,-99.99,,,0.13,weatherlink.com 1.10,2013-05-11 09:56:00,
2013-05-11 06:11:00,60.5,58.0,29.90,SW,227,0.0,-999.0,92,-99.99,,,0.13,weatherlink.com 1.10,2013-05-11 10:11:00,
2013-05-11 06:26:00,60.3,58.0,29.90,WSW,241,0.0,-999.0,92,-99.99,,,0.13,weatherlink.com 1.10,2013-05-11 10:26:00,
2013-05-11 06:41:00,60.2,58.0,29.90,WSW,257,1.0,-999.0,92,-99.99,,,0.13,weatherlink.com 1.10,2013-05-11 10:41:00,
2013-05-11 06:56:00,60.2,58.0,29.90,West,269,0.0,-999.0,92,-99.99,,,0.13,weatherlink.com 1.10,2013-05-11 10:56:00,
2013-05-11 07:11:00,60.4,58.0,29.91,WSW,240,2.0,-999.0,92,-99.99,,,0.13,weatherlink.com 1.10,2013-05-11 11:11:00,
2013-05-11 07:26:00,60.4,58.0,29.91,West,275,4.0,-999.0,92,-99.99,,,0.13,weatherlink.com 1.10,2013-05-11 11:26:00,
2013-05-11 07:41:00,60.5,58.0,29.91,WNW,290,2.0,-999.0,92,-99.99,,,0.13,weatherlink.com 1.10,2013-05-11 11:41:00,
2013-05-11 07:56:00,60.4,58.0,29.91,West,276,5.0,-999.0,92,-99.99,,,0.13,weatherlink.com 1.10,2013-05-11 11:56:00,
2013-05-11 08:11:00,60.4,58.0,29.91,West,280,0.0,-999.0,92,-99.99,,,0.13,weatherlink.com 1.10,2013-05-11 12:11:00,
2013-05-11 08:26:00,60.3,58.0,29.91,West,280,2.0,-999.0,93,-99.99,,,0.13,weatherlink.com 1.10,2013-05-11 12:26:00,
2013-05-11 08:41:00,60.4,58.0,29.92,West,274,2.0,-999.0,93,-99.99,,,0.13,weatherlink.com 1.10,2013-05-11 12:41:00,
2013-05-11 08:56:00,60.5,59.0,29.93,West,275,0.0,-999.0,93,-99.99,,,0.13,weatherlink.com 1.10,2013-05-11 12:56:00,
2013-05-11 09:12:00,59.9,58.0,29.93,NNW,337,2.0,-999.0,93,-99.99,,,0.13,weatherlink.com 1.10,2013-05-11 13:12:00,
2013-05-11 09:27:00,59.7,58.0,29.93,NNW,335,3.0,-999.0,93,-99.99,,,0.13,weatherlink.com 1.10,2013-05-11 13:27:00,
2013-05-11 09:42:00,59.6,58.0,29.93,NW,321,4.0,-999.0,93,-99.99,,,0.13,weatherlink.com 1.10,2013-05-11 13:42:00,
2013-05-11 09:57:00,59.4,58.0,29.93,NW,312,4.0,-999.0,94,-99.99,,,0.13,weatherlink.com 1.10,2013-05-11 13:57:00,
2013-05-11 10:12:00,59.6,58.0,29.93,NW,304,3.0,-999.0,94,-99.99,,,0.13,weatherlink.com 1.10,2013-05-11 14:12:00,
2013-05-11 10:27:00,59.6,58.0,29.92,WNW,302,0.0,-999.0,94,-99.99,,,0.13,weatherlink.com 1.10,2013-05-11 14:27:00,
2013-05-11 10:42:00,59.2,57.0,29.92,WNW,302,4.0,-999.0,93,-99.99,,,0.13,weatherlink.com 1.10,2013-05-11 14:42:00,
2013-05-11 10:57:00,59.5,58.0,29.92,NW,309,5.0,-999.0,93,-99.99,,,0.13,weatherlink.com 1.10,2013-05-11 14:57:00,
2013-05-11 11:12:00,59.4,57.0,29.93,WNW,290,7.0,-999.0,93,-99.99,,,0.13,weatherlink.com 1.10,2013-05-11 15:12:00,
2013-05-11 11:27:00,59.4,57.0,29.94,WNW,293,5.0,-999.0,93,-99.99,,,0.13,weatherlink.com 1.10,2013-05-11 15:27:00,
2013-05-11 11:42:00,59.5,58.0,29.94,NW,320,4.0,-999.0,93,-99.99,,,0.13,weatherlink.com 1.10,2013-05-11 15:42:00,
2013-05-11 11:57:00,59.3,57.0,29.95,NW,325,5.0,-999.0,92,-99.99,,,0.13,weatherlink.com 1.10,2013-05-11 15:57:00,
2013-05-11 12:12:00,59.5,57.0,29.94,NW,313,0.0,-999.0,92,-99.99,,,0.13,weatherlink.com 1.10,2013-05-11 16:12:00,
2013-05-11 12:27:00,59.2,57.0,29.94,NW,321,4.0,-999.0,91,-99.99,,,0.13,weatherlink.com 1.10,2013-05-11 16:27:00,
2013-05-11 12:42:00,58.2,56.0,29.94,NW,325,1.0,-999.0,92,-99.99,,,0.13,weatherlink.com 1.10,2013-05-11 16:42:00,
2013-05-11 12:57:00,58.2,56.0,29.94,NW,323,8.0,-999.0,92,-99.99,,,0.13,weatherlink.com 1.10,2013-05-11 16:57:00,
2013-05-11 13:12:00,58.0,56.0,29.94,NNW,336,4.0,-999.0,92,-99.99,,,0.13,weatherlink.com 1.10,2013-05-11 17:12:00,
2013-05-11 13:27:00,57.8,55.0,29.94,NW,317,6.0,-999.0,91,-99.99,,,0.13,weatherlink.com 1.10,2013-05-11 17:27:00,
2013-05-11 13:42:00,57.8,56.0,29.94,NW,325,3.0,-999.0,92,-99.99,,,0.13,weatherlink.com 1.10,2013-05-11 17:42:00,
2013-05-11 13:57:00,57.9,55.0,29.94,West,269,3.0,-999.0,91,-99.99,,,0.13,weatherlink.com 1.10,2013-05-11 17:57:00,
2013-05-11 14:12:00,58.4,56.0,29.94,WNW,302,6.0,-999.0,91,-99.99,,,0.13,weatherlink.com 1.10,2013-05-11 18:12:00,
2013-05-11 14:27:00,57.9,55.0,29.95,WNW,291,5.0,-999.0,90,-99.99,,,0.13,weatherlink.com 1.10,2013-05-11 18:27:00,
2013-05-11 14:42:00,57.8,55.0,29.95,WNW,286,4.0,-999.0,89,-99.99,,,0.13,weatherlink.com 1.10,2013-05-11 18:42:00,
2013-05-11 14:57:00,58.1,55.0,29.95,NW,306,5.0,-999.0,89,-99.99,,,0.13,weatherlink.com 1.10,2013-05-11 18:57:00,
2013-05-11 15:12:00,58.1,55.0,29.95,NW,305,4.0,-999.0,89,-99.99,,,0.13,weatherlink.com 1.10,2013-05-11 19:12:00,
2013-05-11 15:27:00,58.2,55.0,29.94,NW,306,6.0,-999.0,89,-99.99,,,0.13,weatherlink.com 1.10,2013-05-11 19:27:00,
2013-05-11 15:42:00,58.6,55.0,29.95,WSW,244,6.0,-999.0,88,-99.99,,,0.13,weatherlink.com 1.10,2013-05-11 19:42:00,
2013-05-11 15:57:00,60.4,56.0,29.94,WNW,291,4.0,-999.0,86,-99.99,,,0.13,weatherlink.com 1.10,2013-05-11 19:57:00,
2013-05-11 16:12:00,60.4,55.0,29.95,WNW,293,7.0,-999.0,82,-99.99,,,0.13,weatherlink.com 1.10,2013-05-11 20:12:00,
2013-05-11 16:27:00,59.4,54.0,29.95,NW,321,7.0,-999.0,82,-99.99,,,0.13,weatherlink.com 1.10,2013-05-11 20:27:00,
2013-05-11 16:42:00,59.3,54.0,29.95,NW,322,5.0,-999.0,83,-99.99,,,0.13,weatherlink.com 1.10,2013-05-11 20:42:00,
2013-05-11 16:57:00,59.9,54.0,29.95,WNW,284,4.0,-999.0,82,-99.99,,,0.13,weatherlink.com 1.10,2013-05-11 20:57:00,
2013-05-11 17:12:00,60.8,54.0,29.95,WNW,298,6.0,-999.0,79,-99.99,,,0.13,weatherlink.com 1.10,2013-05-11 21:12:00,
2013-05-11 17:27:00,60.8,53.0,29.95,WNW,299,9.0,-999.0,76,-99.99,,,0.13,weatherlink.com 1.10,2013-05-11 21:27:00,
2013-05-11 17:42:00,60.3,53.0,29.95,WNW,285,5.0,-999.0,77,-99.99,,,0.13,weatherlink.com 1.10,2013-05-11 21:42:00,
2013-05-11 17:57:00,60.5,54.0,29.96,WNW,284,9.0,-999.0,78,-99.99,,,0.13,weatherlink.com 1.10,2013-05-11 21:57:00,
2013-05-11 18:12:00,60.2,53.0,29.96,NW,311,7.0,-999.0,78,-99.99,,,0.13,weatherlink.com 1.10,2013-05-11 22:12:00,
2013-05-11 18:27:00,60.8,54.0,29.96,WNW,301,8.0,-999.0,79,-99.99,,,0.13,weatherlink.com 1.10,2013-05-11 22:27:00,
2013-05-11 18:42:00,61.3,53.0,29.96,WNW,292,9.0,-999.0,75,-99.99,,,0.13,weatherlink.com 1.10,2013-05-11 22:42:00,
2013-05-11 18:57:00,61.1,53.0,29.95,NW,313,6.0,-999.0,75,-99.99,,,0.13,weatherlink.com 1.10,2013-05-11 22:57:00,
2013-05-11 19:12:00,60.7,53.0,29.95,WNW,290,4.0,-999.0,77,-99.99,,,0.13,weatherlink.com 1.10,2013-05-11 23:12:00,
2013-05-11 19:27:00,60.5,53.0,29.95,WNW,300,6.0,-999.0,77,-99.99,,,0.13,weatherlink.com 1.10,2013-05-11 23:27:00,
2013-05-11 19:42:00,60.3,53.0,29.95,WNW,295,1.0,-999.0,77,-99.99,,,0.13,weatherlink.com 1.10,2013-05-11 23:42:00,
2013-05-11 19:57:00,59.9,53.0,29.95,WNW,293,1.0,-999.0,77,-99.99,,,0.13,weatherlink.com 1.10,2013-05-11 23:57:00,
2013-05-11 20:12:00,59.1,52.0,29.96,WNW,292,2.0,-999.0,78,-99.99,,,0.13,weatherlink.com 1.10,2013-05-12 00:12:00,
2013-05-11 20:27:00,57.9,52.0,29.96,WNW,292,2.0,-999.0,80,-99.99,,,0.13,weatherlink.com 1.10,2013-05-12 00:27:00,
2013-05-11 20:42:00,56.6,52.0,29.96,WNW,292,0.0,-999.0,83,-99.99,,,0.13,weatherlink.com 1.10,2013-05-12 00:42:00,
2013-05-11 20:57:00,55.0,51.0,29.97,WNW,292,0.0,-999.0,87,-99.99,,,0.13,weatherlink.com 1.10,2013-05-12 00:57:00,
2013-05-11 21:13:00,54.0,51.0,29.97,WNW,292,0.0,-999.0,88,-99.99,,,0.13,weatherlink.com 1.10,2013-05-12 01:13:00,
2013-05-11 21:28:00,53.2,50.0,29.98,WNW,292,0.0,-999.0,89,-99.99,,,0.13,weatherlink.com 1.10,2013-05-12 01:28:00,
2013-05-11 21:43:00,52.4,50.0,29.97,WNW,292,0.0,-999.0,90,-99.99,,,0.13,weatherlink.com 1.10,2013-05-12 01:43:00,
2013-05-11 21:58:00,51.9,49.0,29.98,WNW,292,0.0,-999.0,91,-99.99,,,0.13,weatherlink.com 1.10,2013-05-12 01:58:00,
2013-05-11 22:13:00,51.5,49.0,29.99,WNW,292,0.0,-999.0,91,-99.99,,,0.13,weatherlink.com 1.10,2013-05-12 02:13:00,
2013-05-11 22:28:00,51.2,49.0,29.98,WNW,292,0.0,-999.0,92,-99.99,,,0.13,weatherlink.com 1.10,2013-05-12 02:28:00,
2013-05-11 22:43:00,51.5,50.0,29.98,WNW,292,0.0,-999.0,93,-99.99,,,0.13,weatherlink.com 1.10,2013-05-12 02:43:00,
2013-05-11 22:58:00,51.4,50.0,29.99,WNW,292,0.0,-999.0,93,-99.99,,,0.13,weatherlink.com 1.10,2013-05-12 02:58:00,
2013-05-11 23:13:00,51.7,50.0,29.99,WNW,292,0.0,-999.0,93,-99.99,,,0.13,weatherlink.com 1.10,2013-05-12 03:13:00,
2013-05-11 23:28:00,51.9,50.0,30.00,WNW,292,0.0,-999.0,94,-99.99,,,0.13,weatherlink.com 1.10,2013-05-12 03:28:00,
2013-05-11 23:43:00,52.8,51.0,30.00,WNW,292,0.0,-999.0,94,-99.99,,,0.15,weatherlink.com 1.10,2013-05-12 03:43:00,
2013-05-11 23:58:00,53.0,51.0,30.00,WNW,292,0.0,-999.0,94,-99.99,,,0.15,weatherlink.com 1.10,2013-05-12 03:58:00,